Radiation Dose measured at exhaust stack monitor of Fukushima Daiichi Nuclear Power Station
Date,Time,Unit 5 6 shared exhaust cylinders,Wind Direction,Wind Velocity(m/s)
2021/08/30,00:00,3.9,south,1.9
2021/08/30,00:10,3.8,south-southwest,2.3
2021/08/30,00:20,3.9,south-southwest,3.8
2021/08/30,00:30,3.8,south-southwest,4.2
2021/08/30,00:40,3.9,south,3.3
2021/08/30,00:50,3.8,south,2.6
2021/08/30,01:00,3.6,south-southwest,3.3
2021/08/30,01:10,3.8,south-southwest,4.1
2021/08/30,01:20,3.8,south-southwest,2.9
2021/08/30,01:30,3.7,south-southwest,1.9
2021/08/30,01:40,3.7,south,2.3
2021/08/30,01:50,3.7,south,3.0
2021/08/30,02:00,3.9,south-southwest,1.9
2021/08/30,02:10,3.8,south-southwest,1.7
2021/08/30,02:20,3.8,south-southwest,3.4
2021/08/30,02:30,4.0,south-southwest,4.9
2021/08/30,02:40,3.8,south-southwest,4.9
2021/08/30,02:50,3.7,south-southwest,3.9
2021/08/30,03:00,3.8,southwest,3.8
2021/08/30,03:10,3.8,southwest,3.8
2021/08/30,03:20,3.7,southwest,3.9
2021/08/30,03:30,3.8,south-southwest,4.3
2021/08/30,03:40,3.7,south-southwest,5.7
2021/08/30,03:50,3.9,south-southwest,6.7
2021/08/30,04:00,3.9,south,6.6
2021/08/30,04:10,3.8,south,3.4
2021/08/30,04:20,4.0,south-southwest,2.8
2021/08/30,04:30,3.9,south-southwest,5.2
2021/08/30,04:40,3.8,south-southwest,5.9
2021/08/30,04:50,3.8,south-southwest,5.1
2021/08/30,05:00,3.9,south-southwest,4.8
2021/08/30,05:10,3.8,south-southwest,5.2
2021/08/30,05:20,3.9,south-southwest,6.3
2021/08/30,05:30,3.8,south-southwest,6.6
2021/08/30,05:40,3.8,south-southwest,5.9
2021/08/30,05:50,3.7,southwest,5.4
2021/08/30,06:00,4.0,southwest,5.1
2021/08/30,06:10,3.8,southwest,5.6
2021/08/30,06:20,3.9,southwest,7.4
2021/08/30,06:30,3.8,south-southwest,7.7
2021/08/30,06:40,3.8,south-southwest,7.7
2021/08/30,06:50,3.9,south-southwest,4.6
2021/08/30,07:00,4.0,south,2.0
2021/08/30,07:10,4.0,south,1.2
2021/08/30,07:20,3.9,-,CALM
2021/08/30,07:30,3.8,south,1.7
2021/08/30,07:40,3.8,south-southwest,2.0
2021/08/30,07:50,3.8,south-southwest,2.6
2021/08/30,08:00,3.7,south,2.5
2021/08/30,08:10,3.7,south-southeast,3.4
2021/08/30,08:20,3.9,south-southeast,1.9
2021/08/30,08:30,3.9,south-southeast,0.9
2021/08/30,08:40,3.6,south,1.5
2021/08/30,08:50,3.9,southeast,1.1
2021/08/30,09:00,3.9,south-southeast,1.9
2021/08/30,09:10,3.8,southwest,1.1
2021/08/30,09:20,3.8,northwest,1.1
2021/08/30,09:30,4.0,north-northwest,2.6
2021/08/30,09:40,3.8,north-northwest,2.2
2021/08/30,09:50,3.9,northwest,1.7
2021/08/30,10:00,3.7,-,CALM
2021/08/30,10:10,3.9,west-southwest,1.2
2021/08/30,10:20,3.9,south,2.0
2021/08/30,10:30,3.9,south-southeast,1.7
2021/08/30,10:40,4.0,south-southwest,1.7
2021/08/30,10:50,3.8,southwest,1.5
2021/08/30,11:00,3.8,south,2.2
2021/08/30,11:10,3.9,south-southeast,1.9
2021/08/30,11:20,3.8,south-southeast,2.6
2021/08/30,11:30,3.9,east-southeast,1.7
2021/08/30,11:40,3.9,south-southeast,2.0
2021/08/30,11:50,3.9,south-southeast,2.6
2021/08/30,12:00,3.8,south,2.0
2021/08/30,12:10,3.8,south-southeast,1.9
2021/08/30,12:20,3.8,south-southwest,1.5
2021/08/30,12:30,3.7,south,1.5
2021/08/30,12:40,3.9,southeast,2.2
2021/08/30,12:50,3.7,south-southeast,4.1
2021/08/30,13:00,3.9,south-southeast,3.0
2021/08/30,13:10,3.8,southeast,0.9
2021/08/30,13:20,3.9,-,CALM
2021/08/30,13:30,4.0,southeast,0.6
2021/08/30,13:40,3.8,southeast,1.2
2021/08/30,13:50,3.9,south,1.1
2021/08/30,14:00,3.8,south-southeast,1.2
2021/08/30,14:10,3.7,south,2.8
2021/08/30,14:20,3.8,south-southeast,3.5
2021/08/30,14:30,3.9,south-southeast,4.5
2021/08/30,14:40,3.8,south-southeast,3.3
2021/08/30,14:50,3.8,south,2.3
2021/08/30,15:00,3.8,southwest,2.0
2021/08/30,15:10,3.8,south-southwest,2.0
2021/08/30,15:20,3.8,south,1.7
2021/08/30,15:30,3.9,northeast,2.8
2021/08/30,15:40,3.7,north,5.0
2021/08/30,15:50,3.7,north-northeast,4.6
2021/08/30,16:00,3.7,north-northeast,5.4
2021/08/30,16:10,3.9,north,4.8
2021/08/30,16:20,3.9,north,4.6
2021/08/30,16:30,3.8,north,5.7
2021/08/30,16:40,3.8,north,5.7
2021/08/30,16:50,4.0,north-northeast,5.6
2021/08/30,17:00,3.8,north-northeast,5.9
2021/08/30,17:10,3.8,north-northeast,5.0
2021/08/30,17:20,3.9,north-northeast,2.2
2021/08/30,17:30,3.8,east-northeast,2.8
2021/08/30,17:40,3.8,northeast,2.0
2021/08/30,17:50,3.8,northeast,2.5
2021/08/30,18:00,3.9,east-northeast,1.2
2021/08/30,18:10,3.9,northeast,1.5
2021/08/30,18:20,3.8,east-northeast,0.8
2021/08/30,18:30,3.7,east-northeast,0.6
2021/08/30,18:40,3.7,-,CALM
2021/08/30,18:50,3.7,-,CALM
2021/08/30,19:00,3.9,northwest,0.9
2021/08/30,19:10,3.8,north-northeast,1.1
2021/08/30,19:20,4.0,north-northeast,1.2
2021/08/30,19:30,3.9,north-northeast,1.9
2021/08/30,19:40,3.8,north-northeast,1.5
2021/08/30,19:50,3.8,north,1.5
2021/08/30,20:00,3.8,north-northwest,1.9
2021/08/30,20:10,3.8,north-northwest,2.6
2021/08/30,20:20,3.8,north-northwest,1.1
2021/08/30,20:30,3.8,north,0.9
2021/08/30,20:40,3.7,north-northeast,0.8
2021/08/30,20:50,4.0,north-northeast,1.1
2021/08/30,21:00,3.8,north-northwest,0.8
2021/08/30,21:10,3.8,north,2.0
2021/08/30,21:20,3.8,north,2.9
2021/08/30,21:30,3.8,north-northwest,3.6
2021/08/30,21:40,3.8,north-northwest,3.8
2021/08/30,21:50,4.0,north,3.1
2021/08/30,22:00,3.8,north-northwest,2.5
2021/08/30,22:10,3.8,north-northwest,2.3
2021/08/30,22:20,3.8,north,2.8
2021/08/30,22:30,3.8,north,2.9
2021/08/30,22:40,3.9,north,1.1
2021/08/30,22:50,3.9,southwest,1.2
2021/08/30,23:00,3.7,south,2.6
2021/08/30,23:10,3.8,-,CALM
2021/08/30,23:20,3.9,northwest,1.2
2021/08/30,23:30,4.0,northwest,1.2
2021/08/30,23:40,3.9,northwest,1.5
2021/08/30,23:50,3.8,north-northwest,0.6
